Hourly Weather Klecewo

Today, 27 July, Tuesday

Time Temperature Precipitation Wind Pressure Humidity
00:00 +19°C° 0.1 mm 2 mps 749 mmHg 94%
01:00 +20°C° 0.1 mm 1 mps 749 mmHg 94%
02:00 +20°C° 0.1 mm 1 mps 749 mmHg 94%
03:00 +20°C° 0.1 mm 1 mps 749 mmHg 94%
04:00 +20°C° 0.1 mm 1 mps 749 mmHg 94%
05:00 +20°C° 0.1 mm 2 mps 749 mmHg 90%
06:00 +21°C° 0.1 mm 2 mps 750 mmHg 85%
07:00 +23°C° 0.1 mm 2 mps 750 mmHg 81%
08:00 +24°C° 0 mm 2 mps 750 mmHg 74%
09:00 +26°C° 0 mm 3 mps 750 mmHg 67%
10:00 +27°C° 0 mm 3 mps 750 mmHg 61%
11:00 +28°C° 0 mm 4 mps 750 mmHg 56%
12:00 +29°C° 0 mm 4 mps 750 mmHg 52%
13:00 +30°C° 0 mm 4 mps 750 mmHg 48%
14:00 +30°C° 0 mm 4 mps 750 mmHg 48%
15:00 +30°C° 0 mm 4 mps 750 mmHg 49%
16:00 +30°C° 0 mm 4 mps 750 mmHg 49%
17:00 +28°C° 0 mm 3 mps 750 mmHg 55%
18:00 +26°C° 0 mm 2 mps 750 mmHg 62%
19:00 +25°C° 0 mm 1 mps 750 mmHg 69%
20:00 +24°C° 0 mm 1 mps 750 mmHg 72%
21:00 +23°C° 0 mm 1 mps 750 mmHg 74%
22:00 +22°C° 0 mm 1 mps 751 mmHg 77%
23:00 +22°C° 0 mm 1 mps 751 mmHg 77%

Tomorrow, 28 July, Wednesday

Time Temperature Precipitation Wind Pressure Humidity
00:00 +21°C° 0 mm 1 mps 751 mmHg 78%
01:00 +21°C° 0 mm 1 mps 751 mmHg 78%
02:00 +20°C° 0 mm 1 mps 750 mmHg 79%
03:00 +19°C° 0 mm 2 mps 750 mmHg 79%
04:00 +18°C° 0 mm 2 mps 750 mmHg 80%
05:00 +20°C° 0 mm 2 mps 750 mmHg 74%
06:00 +21°C° 0 mm 2 mps 751 mmHg 69%
07:00 +24°C° 0 mm 3 mps 751 mmHg 64%
08:00 +25°C° 0 mm 3 mps 751 mmHg 60%
09:00 +26°C° 0 mm 3 mps 751 mmHg 56%
10:00 +27°C° 0 mm 3 mps 751 mmHg 52%
11:00 +26°C° 0 mm 3 mps 751 mmHg 54%
12:00 +26°C° 0 mm 3 mps 750 mmHg 57%
13:00 +25°C° 0 mm 3 mps 750 mmHg 59%
14:00 +26°C° 0 mm 3 mps 750 mmHg 57%
15:00 +26°C° 0 mm 3 mps 750 mmHg 54%
16:00 +27°C° 0 mm 3 mps 750 mmHg 52%
17:00 +26°C° 0.1 mm 3 mps 749 mmHg 58%
18:00 +25°C° 0.1 mm 3 mps 749 mmHg 63%
19:00 +24°C° 0.1 mm 2 mps 749 mmHg 69%
20:00 +23°C° 0.3 mm 2 mps 750 mmHg 76%
21:00 +20°C° 0.3 mm 2 mps 750 mmHg 83%
22:00 +19°C° 0.3 mm 2 mps 750 mmHg 90%
23:00 +19°C° 0 mm 2 mps 750 mmHg 91%

Day after tomorrow, 29 July, Thursday

Time Temperature Precipitation Wind Pressure Humidity
00:00 +18°C° 0 mm 2 mps 750 mmHg 92%
01:00 +18°C° 0 mm 3 mps 750 mmHg 93%
02:00 +17°C° 0 mm 3 mps 750 mmHg 94%
03:00 +17°C° 0 mm 3 mps 750 mmHg 95%
04:00 +16°C° 0 mm 3 mps 750 mmHg 95%
05:00 +17°C° 0 mm 3 mps 750 mmHg 91%
06:00 +18°C° 0 mm 4 mps 750 mmHg 86%
07:00 +20°C° 0 mm 4 mps 750 mmHg 81%
08:00 +21°C° 0 mm 5 mps 750 mmHg 72%
09:00 +23°C° 0 mm 5 mps 750 mmHg 62%
10:00 +24°C° 0 mm 6 mps 749 mmHg 53%
11:00 +26°C° 0 mm 6 mps 749 mmHg 48%
12:00 +27°C° 0 mm 7 mps 749 mmHg 43%
13:00 +28°C° 0 mm 7 mps 749 mmHg 38%
14:00 +28°C° 0 mm 7 mps 748 mmHg 37%
15:00 +28°C° 0 mm 7 mps 748 mmHg 36%
16:00 +28°C° 0 mm 6 mps 748 mmHg 35%
17:00 +27°C° 0 mm 6 mps 748 mmHg 41%
18:00 +25°C° 0 mm 5 mps 748 mmHg 46%
19:00 +22°C° 0 mm 4 mps 748 mmHg 52%
20:00 +21°C° 0 mm 4 mps 748 mmHg 57%
21:00 +19°C° 0 mm 3 mps 748 mmHg 63%
22:00 +18°C° 0 mm 3 mps 748 mmHg 69%
23:00 +17°C° 0 mm 3 mps 748 mmHg 69%

30 July, Friday

Time Temperature Precipitation Wind Pressure Humidity
00:00 +17°C° 0 mm 3 mps 748 mmHg 70%
01:00 +16°C° 0 mm 3 mps 748 mmHg 71%
02:00 +16°C° 0 mm 3 mps 748 mmHg 69%
03:00 +14°C° 0 mm 3 mps 748 mmHg 67%
04:00 +14°C° 0 mm 3 mps 748 mmHg 65%
05:00 +16°C° 0 mm 3 mps 748 mmHg 62%
06:00 +18°C° 0 mm 3 mps 748 mmHg 58%
07:00 +19°C° 0 mm 3 mps 748 mmHg 54%
08:00 +20°C° 0 mm 4 mps 748 mmHg 50%
09:00 +22°C° 0 mm 5 mps 748 mmHg 46%
10:00 +23°C° 0 mm 5 mps 748 mmHg 43%
11:00 +24°C° 0 mm 6 mps 748 mmHg 40%
12:00 +26°C° 0 mm 6 mps 747 mmHg 38%
13:00 +27°C° 0 mm 6 mps 747 mmHg 36%
14:00 +27°C° 0 mm 6 mps 747 mmHg 36%
15:00 +27°C° 0 mm 6 mps 747 mmHg 36%
16:00 +27°C° 0 mm 6 mps 747 mmHg 37%
17:00 +25°C° 0 mm 5 mps 746 mmHg 42%
18:00 +23°C° 0 mm 4 mps 746 mmHg 47%
19:00 +22°C° 0 mm 3 mps 746 mmHg 53%
20:00 +20°C° 0 mm 3 mps 746 mmHg 54%
21:00 +19°C° 0 mm 2 mps 746 mmHg 56%
22:00 +18°C° 0 mm 2 mps 747 mmHg 57%
23:00 +17°C° 0 mm 2 mps 747 mmHg 59%

31 July, Saturday

Time Temperature Precipitation Wind Pressure Humidity
00:00 +17°C° 0 mm 2 mps 747 mmHg 61%
01:00 +16°C° 0 mm 1 mps 747 mmHg 63%
02:00 +16°C° 0 mm 2 mps 746 mmHg 64%
03:00 +15°C° 0 mm 2 mps 746 mmHg 64%
04:00 +15°C° 0 mm 2 mps 746 mmHg 65%
05:00 +17°C° 0 mm 2 mps 746 mmHg 62%
06:00 +19°C° 0 mm 3 mps 746 mmHg 58%
07:00 +20°C° 0 mm 3 mps 746 mmHg 55%
08:00 +22°C° 0 mm 4 mps 746 mmHg 51%
09:00 +25°C° 0 mm 4 mps 746 mmHg 47%
10:00 +27°C° 0 mm 5 mps 745 mmHg 43%
11:00 +26°C° 0 mm 5 mps 745 mmHg 47%
12:00 +26°C° 0 mm 5 mps 745 mmHg 50%
13:00 +25°C° 0 mm 5 mps 745 mmHg 54%
14:00 +25°C° 0.1 mm 5 mps 745 mmHg 51%
15:00 +24°C° 0.1 mm 6 mps 745 mmHg 48%
16:00 +24°C° 0.1 mm 6 mps 745 mmHg 45%
17:00 +23°C° 0 mm 6 mps 745 mmHg 48%
18:00 +22°C° 0 mm 5 mps 745 mmHg 50%
19:00 +21°C° 0 mm 5 mps 746 mmHg 53%
20:00 +19°C° 0 mm 4 mps 746 mmHg 58%
21:00 +18°C° 0 mm 4 mps 746 mmHg 64%
22:00 +17°C° 0 mm 3 mps 746 mmHg 70%
23:00 +16°C° 0 mm 3 mps 746 mmHg 73%

1 August, Sunday

Time Temperature Precipitation Wind Pressure Humidity
00:00 +15°C° 0 mm 4 mps 746 mmHg 76%
01:00 +15°C° 0 mm 4 mps 746 mmHg 79%
02:00 +14°C° 0 mm 4 mps 747 mmHg 83%
03:00 +13°C° 0 mm 4 mps 747 mmHg 88%
04:00 +13°C° 0 mm 4 mps 747 mmHg 93%
05:00 +14°C° 0 mm 4 mps 747 mmHg 84%
06:00 +15°C° 0 mm 5 mps 747 mmHg 76%
07:00 +16°C° 0 mm 6 mps 747 mmHg 67%
08:00 +19°C° 0 mm 6 mps 747 mmHg 60%
09:00 +20°C° 0 mm 6 mps 747 mmHg 53%
10:00 +21°C° 0 mm 6 mps 747 mmHg 45%
11:00 +22°C° 0 mm 6 mps 747 mmHg 42%
12:00 +23°C° 0 mm 6 mps 747 mmHg 38%
13:00 +24°C° 0 mm 6 mps 747 mmHg 35%
14:00 +24°C° 0 mm 6 mps 746 mmHg 36%
15:00 +25°C° 0 mm 5 mps 746 mmHg 36%
16:00 +25°C° 0 mm 5 mps 746 mmHg 37%
17:00 +23°C° 0 mm 5 mps 746 mmHg 42%
18:00 +22°C° 0 mm 5 mps 746 mmHg 48%
19:00 +21°C° 0 mm 4 mps 746 mmHg 53%
20:00 +20°C° 0 mm 4 mps 746 mmHg 59%
21:00 +18°C° 0 mm 3 mps 746 mmHg 64%
22:00 +17°C° 0 mm 3 mps 746 mmHg 70%
23:00 +16°C° 0 mm 3 mps 746 mmHg 76%
Show more